格洛纳斯M-729 COSMOS 2449 [GLONASS-M]

导读

**COSMOS 2449(GLONASS)卫星摘要** COSMOS 2449是独联体(CIS)继承自苏联/俄罗斯的GLONASS全球卫星导航系统组网卫星,于2008年12月25日发射入轨。作为GLONASS系统的空间节点,它运行于约19100千米的中高轨道,参与为全球提供全天候三维定位、测速与授时服务,在高纬度区域具备更优的覆盖性能,推动GLONASS系统完善组网,支持军民两用开放服务。

基本信息
目录编号:
33467
目录名称:
COSMOS 2449 (GLONASS)
国际标识:
2008-067B
轨道中心:
EARTH
卫星名称:
格洛纳斯M-729
卫星全名:
格洛纳斯M-729 COSMOS 2449 [GLONASS-M]
卫星状态:
在轨 (已飞行6382 天)
发射日期:
2008-12-25 UTC
国别 :
俄罗斯(独联体) (CIS)
星等 :
--
轨道信息
数据来源 国际轨道数据 AOE轨道数据
星历时间 2026-06-16T06:43:37+0800
14小时前
查看轨道信息
2026-06-15T12:00:00+0800
1天前
查看轨道信息
半长轴 25508.472km 25508.464km
偏心率 0.0032948 0.0032927
轨道倾角 64.808° 64.808°
近地点辐角 237.722° 237.751°
升交点赤经 69.301° 69.328°
平近点角 121.995° 243.368°
近地点 19046.289km 19046.335km
远地点 19214.381km 19214.319km
周期 675.751分钟 675.750分钟
每日圈数 2.130964 2.130965
详细信息
平衡模式:
三轴稳定
覆盖范围:
全球
运营商:
列舍特涅夫卫星信息系统
运营商所在国:
俄罗斯
制造商(研发单位):
列舍特涅夫卫星信息系统
制造商所在国:
俄罗斯
使用方式:
暂无
卫星简介
格洛纳斯(GLONASS )是苏联/俄罗斯研制卫星导航系统。标准配置为24颗卫星,其中18颗卫星就能保证该系统为俄罗斯境内用户提供全部服务。该卫星已退役。
2D轨道图
3D轨道图
轨道高度分析图
轨道倾角分析图
轨道综合分析图
查看轨道综合分析图